| time (UTC) | temp F | wind direction | speed MPH | gust MPH | rain 1hr in | rain 24hr in | rain mn in | humidity % | barometer mb |
| 20260508024554 | 43 | 356 | 0.0 | 0.0 | 0.00 | 0.05 | 0.05 | 89 | 1003.9 |
| 20260508023050 | 43 | 19 | 0.0 | 9.0 | 0.00 | 0.05 | 0.05 | 89 | 1003.9 |
| 20260508021554 | 44 | 30 | 0.0 | 9.0 | 0.00 | 0.05 | 0.05 | 88 | 1004.0 |
| 20260508020056 | 44 | 29 | 0.0 | 0.0 | 0.01 | 0.05 | 0.05 | 88 | 1003.9 |
| 20260508014552 | 44 | 29 | 0.0 | 0.0 | 0.01 | 0.05 | 0.05 | 87 | 1003.8 |
| 20260508013049 | 44 | 18 | 0.0 | 1.0 | 0.01 | 0.05 | 0.05 | 87 | 1003.9 |
| 20260508011549 | 44 | 4 | 1.0 | 18.0 | 0.01 | 0.05 | 0.05 | 88 | 1003.9 |
| 20260508010047 | 44 | 335 | 13.0 | 24.0 | 0.00 | 0.04 | 0.04 | 88 | 1003.8 |
| 20260508004548 | 45 | 10 | 11.0 | 18.0 | 0.01 | 0.04 | 0.04 | 89 | 1003.7 |
| 20260508003047 | 46 | 4 | 0.0 | 1.0 | 0.01 | 0.04 | 0.04 | 89 | 1003.5 |
| 20260508001546 | 46 | 356 | 0.0 | 0.0 | 0.01 | 0.04 | 0.04 | 89 | 1003.4 |
| 20260508000050 | 46 | 35 | 0.0 | 0.0 | 0.01 | 0.04 | 0.04 | 89 | 1003.2 |
| 20260507234546 | 46 | 35 | 0.0 | 0.0 | 0.00 | 0.03 | 0.03 | 89 | 1003.1 |
| 20260507233048 | 46 | 35 | 0.0 | 0.0 | 0.00 | 0.03 | 0.03 | 89 | 1002.9 |
| 20260507231546 | 46 | 35 | 0.0 | 0.0 | 0.00 | 0.03 | 0.03 | 87 | 1002.8 |
| 20260507230050 | 47 | 35 | 0.0 | 0.0 | 0.00 | 0.03 | 0.03 | 86 | 1002.8 |
| 20260507224545 | 47 | 35 | 0.0 | 0.0 | 0.00 | 0.03 | 0.03 | 86 | 1002.7 |
| 20260507223043 | 47 | 35 | 0.0 | 0.0 | 0.00 | 0.03 | 0.03 | 85 | 1002.7 |
| 20260507221543 | 47 | 35 | 0.0 | 0.0 | 0.00 | 0.03 | 0.03 | 84 | 1002.7 |
| 20260507220042 | 48 | 11 | 0.0 | 0.0 | 0.00 | 0.03 | 0.03 | 85 | 1002.6 |
| 20260507214554 | 47 | 335 | 0.0 | 11.0 | 0.00 | 0.04 | 0.03 | 85 | 1002.5 |
| 20260507213044 | 47 | 358 | 0.0 | 4.0 | 0.00 | 0.04 | 0.03 | 85 | 1002.5 |
| 20260507211541 | 47 | 326 | 5.0 | 17.0 | 0.00 | 0.04 | 0.03 | 85 | 1002.5 |
| 20260507210041 | 48 | 312 | 0.0 | 15.0 | 0.00 | 0.04 | 0.03 | 86 | 1002.6 |
| 20260507204539 | 47 | 333 | 4.0 | 17.0 | 0.00 | 0.04 | 0.03 | 87 | 1002.6 |
| 20260507203054 | 47 | 360 | 6.0 | 19.0 | 0.00 | 0.04 | 0.03 | 85 | 1002.5 |
| 20260507201551 | 47 | 6 | 7.0 | 19.0 | 0.00 | 0.04 | 0.03 | 85 | 1002.3 |
| 20260507200058 | 47 | 321 | 1.0 | 19.0 | 0.00 | 0.04 | 0.03 | 85 | 1002.2 |
| 20260507194538 | 47 | 34 | 19.0 | 34.0 | 0.00 | 0.04 | 0.03 | 85 | 1002.2 |
| 20260507193044 | 47 | 46 | 25.0 | 33.0 | 0.00 | 0.04 | 0.03 | 84 | 1002.1 |
| 20260507191537 | 48 | 47 | 28.0 | 37.0 | 0.00 | 0.04 | 0.03 | 81 | 1002.0 |
| 20260507190037 | 50 | 283 | 12.0 | 28.0 | 0.00 | 0.04 | 0.03 | 80 | 1001.7 |
| 20260507184533 | 50 | 233 | 2.0 | 35.0 | 0.00 | 0.06 | 0.03 | 83 | 1001.8 |
| 20260507183034 | 51 | 256 | 6.0 | 35.0 | 0.01 | 0.06 | 0.03 | 76 | 1001.5 |
| 20260507181532 | 51 | 251 | 26.0 | 40.0 | 0.01 | 0.06 | 0.03 | 82 | 1001.2 |
| 20260507180037 | 49 | 222 | 33.0 | 39.0 | 0.01 | 0.06 | 0.03 | 87 | 1001.2 |
| 20260507174526 | 48 | 208 | 37.0 | 53.0 | 0.01 | 0.11 | 0.03 | 88 | 1001.4 |
| 20260507173031 | 50 | 218 | 30.0 | 43.0 | 0.00 | 0.10 | 0.02 | 77 | 1001.4 |
| 20260507171521 | 49 | 204 | 33.0 | 41.0 | 0.00 | 0.10 | 0.02 | 86 | 1001.4 |
| 20260507170018 | 49 | 206 | 20.0 | 27.0 | 0.00 | 0.10 | 0.02 | 83 | 1001.6 |
| 20260507164514 | 48 | 196 | 0.0 | 13.0 | 0.02 | 0.14 | 0.02 | 88 | 1001.7 |
| 20260507163014 | 47 | 230 | 22.0 | 31.0 | 0.02 | 0.14 | 0.02 | 87 | 1002.0 |
| 20260507161511 | 47 | 251 | 26.0 | 39.0 | 0.02 | 0.14 | 0.02 | 89 | 1001.9 |
| 20260507160012 | 46 | 197 | 37.0 | 48.0 | 0.01 | 0.13 | 0.01 | 89 | 1001.9 |
| 20260507154508 | 47 | 229 | 35.0 | 53.0 | 0.00 | 0.12 | 0.00 | 86 | 1002.7 |
| 20260507153007 | 47 | 251 | 42.0 | 54.0 | 0.00 | 0.12 | 0.00 | 86 | 1002.3 |
| 20260507151507 | 47 | 251 | 42.0 | 55.0 | 0.00 | 0.12 | 0.00 | 87 | 1002.5 |
| 20260507150019 | 47 | 202 | 40.0 | 53.0 | 0.00 | 0.12 | 0.00 | 87 | 1002.4 |
| 20260507144511 | 47 | 208 | 37.0 | 48.0 | 0.00 | 0.12 | 0.00 | 87 | 1002.5 |
| 20260507143109 | 47 | 170 | 20.0 | 30.0 | 0.00 | 0.12 | 0.00 | 86 | 1002.9 |
| 20260507141602 | 47 | 157 | 16.0 | 24.0 | 0.00 | 0.12 | 0.00 | 85 | 1002.9 |
| 20260507140057 | 47 | 166 | 3.0 | 13.0 | 0.00 | 0.12 | 0.00 | 85 | 1003.1 |
| 20260507134551 | 46 | 166 | 1.0 | 13.0 | 0.00 | 0.13 | 0.00 | 88 | 1003.3 |
| 20260507133102 | 46 | 138 | 5.0 | 20.0 | 0.00 | 0.13 | 0.00 | 87 | 1003.4 |
| 20260507131553 | 46 | 204 | 0.0 | 0.0 | 0.00 | 0.13 | 0.00 | 89 | 1003.4 |
| 20260507130101 | 44 | 171 | 0.0 | 1.0 | 0.00 | 0.13 | 0.00 | 90 | 1003.3 |
| 20260507124542 | 44 | 156 | 0.0 | 12.0 | 0.00 | 0.15 | 0.00 | 91 | 1003.7 |
| 20260507123042 | 44 | 156 | 15.0 | 21.0 | 0.00 | 0.15 | 0.00 | 92 | 1003.5 |
| 20260507121543 | 43 | 265 | 0.0 | 0.0 | 0.00 | 0.15 | 0.00 | 90 | 1003.7 |
| 20260507120052 | 43 | 332 | 0.0 | 0.0 | 0.00 | 0.15 | 0.00 | 92 | 1003.7 |
| 20260507114602 | 43 | 332 | 0.0 | 0.0 | 0.00 | 0.15 | 0.00 | 93 | 1003.8 |
| 20260507113035 | 42 | 5 | 0.0 | 0.0 | 0.00 | 0.15 | 0.00 | 93 | 1003.9 |
| 20260507111536 | 41 | 28 | 0.0 | 0.0 | 0.00 | 0.15 | 0.00 | 93 | 1003.8 |
| 20260507110034 | 41 | 7 | 0.0 | 0.0 | 0.00 | 0.15 | 0.00 | 93 | 1003.8 |
| 20260507104533 | 40 | 355 | 0.0 | 0.0 | 0.00 | 0.15 | 0.00 | 93 | 1003.6 |
| 20260507103033 | 40 | 31 | 0.0 | 0.0 | 0.00 | 0.15 | 0.00 | 93 | 1003.6 |
| 20260507101532 | 40 | 2 | 0.0 | 0.0 | 0.00 | 0.15 | 0.00 | 93 | 1003.7 |
| 20260507100034 | 40 | 335 | 0.0 | 0.0 | 0.00 | 0.15 | 0.00 | 93 | 1003.6 |
| 20260507094531 | 40 | 355 | 0.0 | 0.0 | 0.00 | 0.15 | 0.00 | 93 | 1003.7 |
| 20260507093030 | 39 | 348 | 0.0 | 0.0 | 0.00 | 0.15 | 0.00 | 93 | 1003.7 |
| 20260507091535 | 40 | 356 | 0.0 | 0.0 | 0.00 | 0.15 | 0.00 | 93 | 1003.7 |
| 20260507090036 | 40 | 353 | 0.0 | 0.0 | 0.00 | 0.15 | 0.00 | 93 | 1003.7 |
| 20260507084529 | 40 | 341 | 0.0 | 0.0 | 0.00 | 0.15 | 0.00 | 93 | 1003.7 |
| 20260507083032 | 40 | 332 | 0.0 | 2.0 | 0.00 | 0.15 | 0.00 | 93 | 1003.8 |
| 20260507081526 | 40 | 337 | 0.0 | 0.0 | 0.00 | 0.15 | 0.00 | 93 | 1003.6 |
| 20260507080025 | 40 | 336 | 0.0 | 0.0 | 0.00 | 0.15 | 0.00 | 93 | 1003.8 |
| 20260507074524 | 40 | 3 | 1.0 | 20.0 | 0.00 | 0.15 | 0.00 | 93 | 1003.9 |
| 20260507073022 | 40 | 9 | 14.0 | 24.0 | 0.00 | 0.15 | 0.00 | 93 | 1004.0 |
| 20260507071520 | 40 | 12 | 13.0 | 25.0 | 0.00 | 0.15 | 0.00 | 93 | 1003.9 |
| 20260507070021 | 40 | 342 | 9.0 | 17.0 | 0.00 | 0.15 | 0.00 | 93 | 1004.1 |
| 20260507064513 | 40 | 328 | 7.0 | 18.0 | 0.00 | 0.15 | 0.00 | 93 | 1004.3 |
| 20260507063011 | 40 | 20 | 1.0 | 15.0 | 0.00 | 0.15 | 0.00 | 93 | 1004.3 |
| 20260507061509 | 40 | 360 | 0.0 | 13.0 | 0.00 | 0.15 | 0.00 | 93 | 1004.3 |
| 20260507060007 | 41 | 19 | 0.0 | 0.0 | 0.00 | 0.15 | 0.00 | 93 | 1004.4 |
| 20260507054513 | 41 | 26 | 0.0 | 0.0 | 0.00 | 0.15 | 0.00 | 92 | 1004.5 |
| 20260507053004 | 41 | 31 | 0.0 | 2.0 | 0.00 | 0.15 | 0.00 | 92 | 1004.6 |
| 20260507051502 | 41 | 4 | 0.0 | 0.0 | 0.00 | 0.15 | 0.00 | 93 | 1004.7 |
| 20260507050100 | 41 | 322 | 0.0 | 0.0 | 0.00 | 0.15 | 0.00 | 92 | 1004.6 |
| 20260507044658 | 42 | 331 | 0.0 | 0.0 | 0.00 | 0.15 | 0.00 | 93 | 1004.7 |
| 20260507043055 | 42 | 351 | 0.0 | 0.0 | 0.00 | 0.15 | 0.00 | 93 | 1004.9 |
| 20260507041553 | 42 | 345 | 0.0 | 2.0 | 0.00 | 0.15 | 0.00 | 92 | 1005.1 |
| 20260507040054 | 42 | 337 | 0.0 | 0.0 | 0.00 | 0.15 | 0.00 | 93 | 1005.4 |
| 20260507034554 | 42 | 2 | 0.0 | 0.0 | 0.00 | 0.15 | 0.15 | 93 | 1005.5 |
| 20260507033051 | 42 | 341 | 0.0 | 0.0 | 0.00 | 0.15 | 0.15 | 92 | 1005.5 |
| 20260507031547 | 42 | 339 | 0.0 | 10.0 | 0.00 | 0.15 | 0.15 | 92 | 1005.7 |
| 20260507030046 | 43 | 349 | 0.0 | 0.0 | 0.00 | 0.15 | 0.15 | 93 | 1005.7 |